Location: Unspecified
(48.8656°N, 0.0000°E)
Time: 15:46:15
(UTC+00:00)

Vanguard 1 - Pass Details

Date: 22 June 2019
Orbit: 653 x 3830 km, 34.3° (Epoch: 22 July)

Event Time Altitude Azimuth Distance (km) Brightness Sun altitude
Rises 08:14:48 0° 266° (W) 5,002 13.2 39.1°
Reaches altitude 10° 08:21:13 10° 239° (WSW) 3,238 12.5 40.1°
Maximum altitude 08:23:39 12° 220° (SW) 2,835 12.3 40.5°
Drops below altitude 10° 08:25:46 10° 200° (SSW) 2,729 12.4 40.8°
Sets 08:29:54 0° 167° (SSE) 3,277 13.0 41.5°
